,,Stat5,,Stat1,,Stat2,,Stat3,,Stat4,,Wind1,,Wind1,
time,status,PA1M_AVG,status,PR1M_SUM,status,RH1M_AVG,status,SR1M_AVG,status,TA1M_AVG,status,W1dAve1m,status,W1sAve1m,
2001-01-08, 00:00:01,VALID,917.752,VALID,0,VALID,95.4512,VALID,-0.061131,VALID,18.1638,VALID,109,VALID,0.0883413,
2001-01-08, 00:01:00,VALID,917.752,VALID,0,VALID,96.352,VALID,-0.0509425,VALID,18.1707,VALID,109,VALID,0,
2001-01-08, 00:02:00,VALID,917.734,VALID,0,VALID,97.1035,VALID,-0.0509425,VALID,18.2095,VALID,96,VALID,0,
2001-01-08, 00:03:01,VALID,917.727,VALID,0,VALID,97.5944,VALID,-0.0339617,VALID,18.2621,VALID,83,VALID,0,
2001-01-08, 00:04:00,VALID,917.715,VALID,0,VALID,97.7215,VALID,-0.0509425,VALID,18.2835,VALID,81,VALID,0,
2001-01-08, 00:05:00,VALID,917.714,VALID,0,VALID,97.4647,VALID,-0.0169808,VALID,18.2741,VALID,72,VALID,0,
2001-01-08, 00:06:00,VALID,917.704,VALID,0,VALID,97.5956,VALID,0,VALID,18.316,VALID,67,VALID,0,
2001-01-08, 00:07:00,VALID,917.684,VALID,0,VALID,97.6719,VALID,-0.0509425,VALID,18.3158,VALID,94,VALID,0,
2001-01-08, 00:08:00,VALID,917.68,VALID,0,VALID,97.4799,VALID,-0.0169808,VALID,18.3031,VALID,85,VALID,0,
2001-01-08, 00:09:00,VALID,917.71,VALID,0,VALID,97.087,VALID,0,VALID,18.2514,VALID,346,VALID,0,
2001-01-08, 00:10:00,VALID,917.727,VALID,0,VALID,97.6872,VALID,-0.0169808,VALID,18.3197,VALID,328,VALID,0,
2001-01-08, 00:11:01,VALID,917.725,VALID,0,VALID,97.9835,VALID,-0.0509425,VALID,18.365,VALID,298,VALID,0,
2001-01-08, 00:12:00,VALID,917.709,VALID,0,VALID,97.9784,VALID,-0.0339617,VALID,18.3518,VALID,285,VALID,0,
2001-01-08, 00:13:00,VALID,917.672,VALID,0,VALID,97.9428,VALID,-0.0339617,VALID,18.3225,VALID,284,VALID,0,
2001-01-08, 00:14:01,VALID,917.663,VALID,0,VALID,98.0153,VALID,-0.0509425,VALID,18.3387,VALID,284,VALID,0,
2001-01-08, 00:15:00,VALID,917.641,VALID,0,VALID,98.0649,VALID,0,VALID,18.3647,VALID,324,VALID,0,
2001-01-08, 00:16:01,VALID,917.631,VALID,0,VALID,98.206,VALID,-0.0169808,VALID,18.4261,VALID,358,VALID,0,
2001-01-08, 00:17:00,VALID,917.624,VALID,0,VALID,97.9288,VALID,-0.0339617,VALID,18.4097,VALID,350,VALID,0,
2001-01-08, 00:18:00,VALID,917.623,VALID,0,VALID,97.616,VALID,0,VALID,18.3513,VALID,324,VALID,0,
2001-01-08, 00:19:00,VALID,917.619,VALID,0,VALID,97.9403,VALID,0.0169808,VALID,18.4286,VALID,316,VALID,0,
2001-01-08, 00:20:00,VALID,917.605,VALID,0,VALID,97.9682,VALID,0,VALID,18.4485,VALID,254,VALID,0,
2001-01-08, 00:21:00,VALID,917.58,VALID,0,VALID,97.2167,VALID,0,VALID,18.3871,VALID,165,VALID,0,
2001-01-08, 00:22:01,VALID,917.576,VALID,0,VALID,96.8276,VALID,0,VALID,18.3359,VALID,124,VALID,0,
2001-01-08, 00:23:00,VALID,917.574,VALID,0,VALID,97.0807,VALID,0,VALID,18.3645,VALID,102,VALID,0,
2001-01-08, 00:24:01,VALID,917.561,VALID,0,VALID,96.2617,VALID,0,VALID,18.3096,VALID,102,VALID,0,
2001-01-08, 00:25:00,VALID,917.558,VALID,0,VALID,96.0545,VALID,0,VALID,18.2646,VALID,102,VALID,0,
2001-01-08, 00:26:00,VALID,917.542,VALID,0,VALID,96.1486,VALID,0,VALID,18.242,VALID,102,VALID,0,
2001-01-08, 00:27:01,VALID,917.527,VALID,0,VALID,96.2732,VALID,-0.0169808,VALID,18.242,VALID,102,VALID,0,
2001-01-08, 00:28:01,VALID,917.51,VALID,0,VALID,96.4181,VALID,0,VALID,18.2422,VALID,102,VALID,0,
2001-01-08, 00:29:00,VALID,917.494,VALID,0,VALID,95.6514,VALID,-0.0169808,VALID,18.1386,VALID,102,VALID,0,
2001-01-08, 00:30:01,VALID,917.481,VALID,0,VALID,96.0939,VALID,-0.0169808,VALID,18.0807,VALID,102,VALID,0,
2001-01-08, 00:31:00,VALID,917.485,VALID,0,VALID,96.8225,VALID,0,VALID,18.0837,VALID,102,VALID,0,
2001-01-08, 00:32:01,VALID,917.482,VALID,0,VALID,96.6788,VALID,-0.0169808,VALID,18.0648,VALID,102,VALID,0,
2001-01-08, 00:33:00,VALID,917.481,VALID,0,VALID,96.3825,VALID,0,VALID,17.9543,VALID,102,VALID,0,
2001-01-08, 00:34:00,VALID,917.477,VALID,0,VALID,96.4105,VALID,-0.0169808,VALID,17.9063,VALID,102,VALID,0,
2001-01-08, 00:35:01,VALID,917.47,VALID,0,VALID,97.265,VALID,0,VALID,17.9421,VALID,90,VALID,0,
2001-01-08, 00:36:00,VALID,917.478,VALID,0,VALID,97.8589,VALID,0,VALID,18.0293,VALID,92,VALID,0,
2001-01-08, 00:37:00,VALID,917.497,VALID,0,VALID,98.0636,VALID,0,VALID,18.0676,VALID,94,VALID,0,
2001-01-08, 00:38:01,VALID,917.494,VALID,0,VALID,97.9809,VALID,-0.0339617,VALID,18.0646,VALID,94,VALID,0,
2001-01-08, 00:39:00,VALID,917.496,VALID,0,VALID,97.6669,VALID,-0.0169808,VALID,18.0228,VALID,101,VALID,0,
2001-01-08, 00:40:01,VALID,917.486,VALID,0,VALID,97.719,VALID,0,VALID,18.0064,VALID,99,VALID,1.00144,
2001-01-08, 00:41:00,VALID,917.499,VALID,0,VALID,97.9225,VALID,0.0169808,VALID,18.0224,VALID,95,VALID,0.837993,
2001-01-08, 00:42:00,VALID,917.51,VALID,0,VALID,97.9708,VALID,-0.0169808,VALID,18.0258,VALID,90,VALID,0.839227,
2001-01-08, 00:43:00,VALID,917.512,VALID,0,VALID,97.9581,VALID,-0.0339617,VALID,18.0125,VALID,97,VALID,0.930304,
2001-01-08, 00:44:00,VALID,917.493,VALID,0,VALID,97.9441,VALID,0,VALID,17.9961,VALID,92,VALID,0.891036,
2001-01-08, 00:45:00,VALID,917.486,VALID,0,VALID,98.0954,VALID,0,VALID,18.0088,VALID,100,VALID,0.876402,
2001-01-08, 00:46:01,VALID,917.457,VALID,0,VALID,98.4031,VALID,-0.0169808,VALID,18.1195,VALID,102,VALID,0.978711,
2001-01-08, 00:47:00,VALID,917.439,VALID,0,VALID,98.4069,VALID,-0.0339617,VALID,18.1486,VALID,104,VALID,0.844778,
2001-01-08, 00:48:01,VALID,917.422,VALID,0,VALID,98.2531,VALID,-0.0169808,VALID,18.1262,VALID,101,VALID,0.848479,
2001-01-08, 00:49:01,VALID,917.402,VALID,0,VALID,98.1488,VALID,-0.0339617,VALID,18.1038,VALID,97,VALID,0.777755,
2001-01-08, 00:50:00,VALID,917.386,VALID,0,VALID,98.4527,VALID,-0.0339617,VALID,18.1843,VALID,95,VALID,0.818462,
2001-01-08, 00:51:01,VALID,917.343,VALID,0,VALID,98.5951,VALID,0,VALID,18.239,VALID,99,VALID,0.745477,
2001-01-08, 00:52:01,VALID,917.316,VALID,0,VALID,98.7248,VALID,-0.0679233,VALID,18.3006,VALID,97,VALID,0.703125,
2001-01-08, 00:53:00,VALID,917.3,VALID,0,VALID,98.7515,VALID,-0.0339617,VALID,18.3423,VALID,93,VALID,0.460938,
2001-01-08, 00:54:01,VALID,917.246,VALID,0,VALID,98.7884,VALID,-0.0169808,VALID,18.3779,VALID,102,VALID,0.435937,
2001-01-08, 00:55:00,VALID,917.207,VALID,0,VALID,98.7439,VALID,-0.0339617,VALID,18.3945,VALID,106,VALID,0.55736,
2001-01-08, 00:56:01,VALID,917.156,VALID,0,VALID,98.6473,VALID,-0.0339617,VALID,18.365,VALID,109,VALID,0.604441,
2001-01-08, 00:57:00,VALID,917.138,VALID,0,VALID,98.6066,VALID,-0.0509425,VALID,18.3523,VALID,109,VALID,0.646382,
2001-01-08, 00:58:00,VALID,917.135,VALID,0,VALID,98.6663,VALID,-0.0679233,VALID,18.3753,VALID,103,VALID,0.643298,
2001-01-08, 00:59:01,VALID,917.142,VALID,0,VALID,98.749,VALID,-0.0679233,VALID,18.4042,VALID,101,VALID,0.542969,
2001-01-08, 01:00:00,VALID,917.151,VALID,0,VALID,98.7554,VALID,-0.0679233,VALID,18.4169,VALID,101,VALID,0.587993,
2001-01-08, 01:01:00,VALID,917.158,VALID,0,VALID,98.7388,VALID,0,VALID,18.4335,VALID,101,VALID,0.502204,
2001-01-08, 01:02:01,VALID,917.165,VALID,0,VALID,98.8278,VALID,-0.0509425,VALID,18.4651,VALID,101,VALID,0.590234,
2001-01-08, 01:03:00,VALID,917.145,VALID,0,VALID,98.7579,VALID,-0.0169808,VALID,18.4556,VALID,101,VALID,0.532895,
2001-01-08, 01:04:01,VALID,917.118,VALID,0,VALID,98.6918,VALID,-0.0339617,VALID,18.4162,VALID,101,VALID,0.451069,
2001-01-08, 01:05:00,VALID,917.102,VALID,0,VALID,98.6791,VALID,-0.0339617,VALID,18.4134,VALID,101,VALID,0.337377,
2001-01-08, 01:06:00,VALID,917.074,VALID,0,VALID,98.6015,VALID,-0.0849042,VALID,18.3848,VALID,101,VALID,0.136308,
2001-01-08, 01:07:00,VALID,917.052,VALID,0,VALID,98.5659,VALID,-0.0679233,VALID,18.3456,VALID,100,VALID,0.0219984,
2001-01-08, 01:08:00,VALID,917.029,VALID,0,VALID,98.6765,VALID,-0.0339617,VALID,18.3943,VALID,96,VALID,0.243627,
2001-01-08, 01:09:00,VALID,917.026,VALID,0,VALID,98.7121,VALID,0,VALID,18.4233,VALID,96,VALID,0.0889423,
2001-01-08, 01:10:01,VALID,917.003,VALID,0,VALID,98.7134,VALID,-0.0339617,VALID,18.4166,VALID,96,VALID,0,
2001-01-08, 01:11:00,VALID,916.978,VALID,0,VALID,98.7274,VALID,-0.0169808,VALID,18.4427,VALID,96,VALID,0,
2001-01-08, 01:12:01,VALID,916.954,VALID,0,VALID,98.6994,VALID,0,VALID,18.4293,VALID,96,VALID,0,
2001-01-08, 01:13:00,VALID,916.932,VALID,0,VALID,98.6485,VALID,0,VALID,18.4097,VALID,96,VALID,0,
2001-01-08, 01:14:00,VALID,916.919,VALID,0,VALID,98.6104,VALID,-0.0169808,VALID,18.4069,VALID,96,VALID,0,
2001-01-08, 01:15:01,VALID,916.906,VALID,0,VALID,98.5964,VALID,0,VALID,18.4005,VALID,96,VALID,0,
2001-01-08, 01:16:01,VALID,916.898,VALID,0,VALID,98.5544,VALID,-0.0169808,VALID,18.3908,VALID,96,VALID,0,
2001-01-08, 01:17:00,VALID,916.873,VALID,0,VALID,98.5621,VALID,-0.0339617,VALID,18.3903,VALID,96,VALID,0,
2001-01-08, 01:18:01,VALID,916.859,VALID,0,VALID,98.6104,VALID,0,VALID,18.4229,VALID,96,VALID,0,
2001-01-08, 01:19:00,VALID,916.859,VALID,0,VALID,98.6574,VALID,0,VALID,18.442,VALID,96,VALID,0,
2001-01-08, 01:20:01,VALID,916.863,VALID,0,VALID,98.6613,VALID,-0.0169808,VALID,18.4651,VALID,96,VALID,0,
2001-01-08, 01:21:01,VALID,916.863,VALID,0,VALID,98.5824,VALID,0,VALID,18.4291,VALID,96,VALID,0,
2001-01-08, 01:22:00,VALID,916.844,VALID,0,VALID,98.5443,VALID,0,VALID,18.4226,VALID,96,VALID,0,
2001-01-08, 01:23:01,VALID,916.828,VALID,0,VALID,98.4553,VALID,0,VALID,18.4323,VALID,96,VALID,0,
2001-01-08, 01:24:00,VALID,916.795,VALID,0,VALID,98.2264,VALID,-0.0169808,VALID,18.3806,VALID,96,VALID,0,
2001-01-08, 01:25:00,VALID,916.784,VALID,0,VALID,97.4278,VALID,-0.0169808,VALID,18.2651,VALID,96,VALID,0,
2001-01-08, 01:26:01,VALID,916.768,VALID,0,VALID,96.5962,VALID,-0.0169808,VALID,18.1259,VALID,96,VALID,0,
2001-01-08, 01:27:01,VALID,916.771,VALID,0,VALID,96.6661,VALID,-0.0339617,VALID,18.0385,VALID,96,VALID,0,
2001-01-08, 01:28:01,VALID,916.765,VALID,0,VALID,96.5377,VALID,-0.0849042,VALID,17.9744,VALID,96,VALID,0.0234375,
2001-01-08, 01:29:01,VALID,916.76,VALID,0,VALID,96.6458,VALID,-0.101885,VALID,17.9031,VALID,96,VALID,0,
2001-01-08, 01:30:00,VALID,916.747,VALID,0,VALID,96.9001,VALID,-0.0849042,VALID,17.8874,VALID,96,VALID,0.115954,
2001-01-08, 01:31:00,VALID,916.736,VALID,0,VALID,97.2332,VALID,-0.0849042,VALID,17.868,VALID,96,VALID,0.165707,
2001-01-08, 01:32:01,VALID,916.749,VALID,0,VALID,97.2409,VALID,-0.0169808,VALID,17.8161,VALID,96,VALID,0.0228207,
2001-01-08, 01:33:01,VALID,916.753,VALID,0,VALID,97.5768,VALID,-0.0169808,VALID,17.7771,VALID,96,VALID,0,
2001-01-08, 01:34:01,VALID,916.751,VALID,0,VALID,97.7393,VALID,0,VALID,17.7965,VALID,96,VALID,0,
2001-01-08, 01:35:00,VALID,916.748,VALID,0,VALID,97.8767,VALID,-0.0339617,VALID,17.7965,VALID,96,VALID,0,
2001-01-08, 01:36:01,VALID,916.756,VALID,0,VALID,97.7521,VALID,0,VALID,17.7864,VALID,101,VALID,0,
2001-01-08, 01:37:01,VALID,916.743,VALID,0,VALID,97.3947,VALID,-0.0169808,VALID,17.7158,VALID,104,VALID,0,
2001-01-08, 01:38:01,VALID,916.739,VALID,0,VALID,97.3604,VALID,-0.0169808,VALID,17.6775,VALID,104,VALID,0,
2001-01-08, 01:39:01,VALID,916.747,VALID,0,VALID,97.7673,VALID,0,VALID,17.6966,VALID,104,VALID,0,
2001-01-08, 01:40:01,VALID,916.754,VALID,0,VALID,98.192,VALID,-0.0169808,VALID,17.7739,VALID,104,VALID,0,
2001-01-08, 01:41:01,VALID,916.743,VALID,0,VALID,98.4616,VALID,0,VALID,17.842,VALID,104,VALID,0,
2001-01-08, 01:42:01,VALID,916.751,VALID,0,VALID,98.4336,VALID,-0.0169808,VALID,17.8616,VALID,126,VALID,0,
2001-01-08, 01:43:01,VALID,916.763,VALID,0,VALID,98.3408,VALID,-0.0169808,VALID,17.8392,VALID,211,VALID,0.109786,
2001-01-08, 01:44:01,VALID,916.762,VALID,0,VALID,97.8614,VALID,0,VALID,17.7324,VALID,224,VALID,0.606086,
2001-01-08, 01:45:01,VALID,916.735,VALID,0,VALID,97.8716,VALID,-0.0169808,VALID,17.6551,VALID,235,VALID,0.58676,
2001-01-08, 01:46:01,VALID,916.716,VALID,0,VALID,97.953,VALID,-0.0169808,VALID,17.6194,VALID,235,VALID,0.420641,
2001-01-08, 01:47:01,VALID,916.699,VALID,0,VALID,97.9492,VALID,-0.0679233,VALID,17.6034,VALID,241,VALID,0.568051,
2001-01-08, 01:48:01,VALID,916.688,VALID,0,VALID,98.0293,VALID,-0.0509425,VALID,17.5774,VALID,239,VALID,0.456826,
2001-01-08, 01:49:01,VALID,916.685,VALID,0,VALID,98.1513,VALID,-0.0169808,VALID,17.5776,VALID,243,VALID,0.373197,
2001-01-08, 01:50:01,VALID,916.665,VALID,0,VALID,98.2149,VALID,0,VALID,17.5645,VALID,232,VALID,0.35332,
2001-01-08, 01:51:01,VALID,916.657,VALID,0,VALID,98.1653,VALID,-0.0509425,VALID,17.5419,VALID,230,VALID,0.29009,
2001-01-08, 01:52:01,VALID,916.649,VALID,0,VALID,98.1119,VALID,0,VALID,17.5192,VALID,230,VALID,0.0980674,
2001-01-08, 01:53:01,VALID,916.648,VALID,0,VALID,98.1106,VALID,-0.0339617,VALID,17.474,VALID,230,VALID,0,
2001-01-08, 01:54:01,VALID,916.651,VALID,0,VALID,98.1666,VALID,-0.0169808,VALID,17.4616,VALID,230,VALID,0,
2001-01-08, 01:55:01,VALID,916.656,VALID,0,VALID,98.2035,VALID,-0.0169808,VALID,17.4355,VALID,230,VALID,0,
2001-01-08, 01:56:01,VALID,916.644,VALID,0,VALID,98.2518,VALID,-0.0169808,VALID,17.4325,VALID,228,VALID,0,
2001-01-08, 01:57:01,VALID,916.638,VALID,0,VALID,98.4642,VALID,-0.0169808,VALID,17.4293,VALID,227,VALID,0,
2001-01-08, 01:58:01,VALID,916.639,VALID,0,VALID,98.5201,VALID,-0.0679233,VALID,17.4549,VALID,227,VALID,0,
2001-01-08, 01:59:00,VALID,916.632,VALID,0,VALID,98.5786,VALID,-0.0169808,VALID,17.4549,VALID,227,VALID,0,
2001-01-08, 02:00:00,VALID,916.618,VALID,0,VALID,98.529,VALID,-0.0169808,VALID,17.4456,VALID,227,VALID,0,
2001-01-08, 02:01:00,VALID,916.588,VALID,0,VALID,98.3243,VALID,-0.0339617,VALID,17.3804,VALID,225,VALID,0,
2001-01-08, 02:02:00,VALID,916.563,VALID,0,VALID,98.2823,VALID,-0.0169808,VALID,17.3425,VALID,179,VALID,0.381579,
2001-01-08, 02:03:00,VALID,916.542,VALID,0,VALID,98.2225,VALID,-0.0509425,VALID,17.2906,VALID,169,VALID,0.736225,
2001-01-08, 02:04:00,VALID,916.52,VALID,0,VALID,98.2048,VALID,-0.0339617,VALID,17.2484,VALID,176,VALID,0.561061,
2001-01-08, 02:05:00,VALID,916.495,VALID,0,VALID,98.3052,VALID,-0.0169808,VALID,17.2256,VALID,185,VALID,0.556891,
2001-01-08, 02:06:00,VALID,916.475,VALID,0,VALID,98.4972,VALID,-0.0169808,VALID,17.2321,VALID,196,VALID,0.326953,
2001-01-08, 02:07:00,VALID,916.473,VALID,0,VALID,98.6689,VALID,-0.0849042,VALID,17.2747,VALID,205,VALID,0.143503,
2001-01-08, 02:08:00,VALID,916.459,VALID,0,VALID,98.5137,VALID,-0.0679233,VALID,17.2519,VALID,207,VALID,0,
2001-01-08, 02:09:00,VALID,916.438,VALID,0,VALID,98.3828,VALID,-0.0679233,VALID,17.2032,VALID,207,VALID,0,
2001-01-08, 02:10:00,VALID,916.428,VALID,0,VALID,98.295,VALID,-0.0509425,VALID,17.1354,VALID,207,VALID,0,
2001-01-08, 02:11:00,VALID,916.412,VALID,0,VALID,98.2696,VALID,-0.0679233,VALID,17.1128,VALID,207,VALID,0,
2001-01-08, 02:12:00,VALID,916.384,VALID,0,VALID,98.4947,VALID,-0.0339617,VALID,17.1397,VALID,207,VALID,0,
2001-01-08, 02:13:00,VALID,916.358,VALID,0,VALID,98.7833,VALID,-0.0679233,VALID,17.2002,VALID,207,VALID,0,
2001-01-08, 02:14:00,VALID,916.35,VALID,0,VALID,98.7948,VALID,-0.0339617,VALID,17.2521,VALID,207,VALID,0,
2001-01-08, 02:15:00,VALID,916.336,VALID,0,VALID,98.8456,VALID,-0.0509425,VALID,17.2682,VALID,207,VALID,0,
2001-01-08, 02:16:00,VALID,916.326,VALID,0,VALID,98.8431,VALID,-0.0509425,VALID,17.2878,VALID,207,VALID,0,
2001-01-08, 02:17:00,VALID,916.3,VALID,0,VALID,98.7363,VALID,-0.0509425,VALID,17.262,VALID,207,VALID,0,
2001-01-08, 02:18:00,VALID,916.3,VALID,0,VALID,98.5964,VALID,-0.101885,VALID,17.1972,VALID,207,VALID,0,
2001-01-08, 02:19:00,VALID,916.276,VALID,0,VALID,98.4209,VALID,-0.0509425,VALID,17.1132,VALID,207,VALID,0,
2001-01-08, 02:20:00,VALID,916.261,VALID,0,VALID,98.454,VALID,-0.0339617,VALID,17.0648,VALID,207,VALID,0,
2001-01-08, 02:21:00,VALID,916.262,VALID,0,VALID,98.5926,VALID,0,VALID,17.0747,VALID,207,VALID,0,
2001-01-08, 02:22:00,VALID,916.258,VALID,0,VALID,98.7388,VALID,-0.0509425,VALID,17.1066,VALID,207,VALID,0,
2001-01-08, 02:23:00,VALID,916.232,VALID,0,VALID,98.7414,VALID,-0.0849042,VALID,17.0997,VALID,206,VALID,0,
2001-01-08, 02:24:00,VALID,916.209,VALID,0,VALID,98.8062,VALID,-0.0509425,VALID,17.1423,VALID,195,VALID,0,
2001-01-08, 02:25:00,VALID,916.182,VALID,0,VALID,98.5176,VALID,-0.0679233,VALID,17.065,VALID,192,VALID,0,
2001-01-08, 02:26:00,VALID,916.184,VALID,0,VALID,98.145,VALID,-0.0849042,VALID,16.9227,VALID,172,VALID,0.361225,
2001-01-08, 02:27:00,VALID,916.158,VALID,0,VALID,98.2721,VALID,-0.0339617,VALID,16.8678,VALID,155,VALID,0.795436,
2001-01-08, 02:28:00,VALID,916.154,VALID,0,VALID,98.6358,VALID,-0.0679233,VALID,16.8803,VALID,167,VALID,0.840666,
2001-01-08, 02:29:00,VALID,916.143,VALID,0,VALID,99.0911,VALID,-0.0339617,VALID,17.0454,VALID,168,VALID,0.725561,
2001-01-08, 02:30:00,VALID,916.129,VALID,0,VALID,99.0949,VALID,-0.0509425,VALID,17.1296,VALID,172,VALID,0.61875,
2001-01-08, 02:31:00,VALID,916.12,VALID,0,VALID,98.9626,VALID,-0.0679233,VALID,17.1137,VALID,187,VALID,0.156456,
2001-01-08, 02:32:00,VALID,916.093,VALID,0,VALID,98.9817,VALID,-0.0509425,VALID,17.1068,VALID,187,VALID,0,
2001-01-08, 02:33:00,VALID,916.051,VALID,0,VALID,98.9181,VALID,-0.0339617,VALID,17.068,VALID,187,VALID,0,
2001-01-08, 02:34:00,VALID,916.008,VALID,0,VALID,98.8113,VALID,0,VALID,17.0067,VALID,187,VALID,0,
2001-01-08, 02:35:00,VALID,915.982,VALID,0,VALID,98.8164,VALID,-0.0509425,VALID,16.9585,VALID,205,VALID,0,
2001-01-08, 02:36:00,VALID,915.976,VALID,0,VALID,98.9397,VALID,0.0509425,VALID,16.9509,VALID,227,VALID,0,
2001-01-08, 02:37:00,VALID,915.97,VALID,0,VALID,98.9512,VALID,0.0849042,VALID,16.9639,VALID,233,VALID,0,
2001-01-08, 02:38:00,VALID,915.97,VALID,0,VALID,98.9079,VALID,0.0849042,VALID,16.9408,VALID,233,VALID,0,
2001-01-08, 02:39:00,VALID,915.946,VALID,0,VALID,98.9016,VALID,0.0679233,VALID,16.9253,VALID,227,VALID,0,
2001-01-08, 02:40:00,VALID,915.918,VALID,0,VALID,98.9792,VALID,0.0339617,VALID,16.9279,VALID,206,VALID,0,
2001-01-08, 02:41:00,VALID,915.894,VALID,0,VALID,98.969,VALID,0.0509425,VALID,16.9184,VALID,206,VALID,0,
2001-01-08, 02:42:00,VALID,915.881,VALID,0,VALID,98.9817,VALID,0.0679233,VALID,16.9057,VALID,205,VALID,0,
2001-01-08, 02:43:00,VALID,915.864,VALID,0,VALID,98.9537,VALID,0.101885,VALID,16.8956,VALID,205,VALID,0,
2001-01-08, 02:44:00,VALID,915.846,VALID,0,VALID,98.9194,VALID,0.0849042,VALID,16.8636,VALID,201,VALID,0,
2001-01-08, 02:45:00,VALID,915.803,VALID,0,VALID,98.9016,VALID,0,VALID,16.8149,VALID,170,VALID,0.545473,
2001-01-08, 02:46:00,VALID,915.777,VALID,0,VALID,99.072,VALID,0.0339617,VALID,16.8414,VALID,162,VALID,0.741992,
2001-01-08, 02:47:00,VALID,915.752,VALID,0,VALID,99.0593,VALID,0.0509425,VALID,16.8575,VALID,162,VALID,0.444901,
2001-01-08, 02:48:00,VALID,915.751,VALID,0,VALID,99.0822,VALID,0.0169808,VALID,16.8605,VALID,171,VALID,0.288035,
2001-01-08, 02:49:00,VALID,915.739,VALID,0,VALID,99.1381,VALID,0.0849042,VALID,16.8732,VALID,177,VALID,0.129729,
2001-01-08, 02:50:00,VALID,915.722,VALID,0,VALID,99.1763,VALID,0.0509425,VALID,16.8993,VALID,177,VALID,0,
2001-01-08, 02:51:00,VALID,915.7,VALID,0,VALID,99.1902,VALID,0,VALID,16.9191,VALID,177,VALID,0.199836,
2001-01-08, 02:52:00,VALID,915.674,VALID,0,VALID,99.1089,VALID,-0.101885,VALID,16.9133,VALID,175,VALID,0.439145,
2001-01-08, 02:53:00,VALID,915.649,VALID,0,VALID,98.6994,VALID,-0.0339617,VALID,16.7357,VALID,163,VALID,0.0224359,
2001-01-08, 02:54:00,VALID,915.637,VALID,0,VALID,98.7515,VALID,-0.0339617,VALID,16.6487,VALID,151,VALID,0,
2001-01-08, 02:55:00,VALID,915.635,VALID,0,VALID,98.9321,VALID,-0.0849042,VALID,16.678,VALID,150,VALID,0,
2001-01-08, 02:56:00,VALID,915.629,VALID,0,VALID,98.997,VALID,-0.101885,VALID,16.6978,VALID,150,VALID,0,
2001-01-08, 02:57:00,VALID,915.614,VALID,0,VALID,99.1178,VALID,-0.0339617,VALID,16.7234,VALID,162,VALID,0,
2001-01-08, 02:58:00,VALID,915.597,VALID,0,VALID,99.2525,VALID,-0.0509425,VALID,16.8104,VALID,168,VALID,0,
2001-01-08, 02:59:00,VALID,915.594,VALID,0,VALID,99.2042,VALID,-0.0339617,VALID,16.8519,VALID,187,VALID,0,
2001-01-08, 03:00:00,VALID,915.585,VALID,0,VALID,99.1203,VALID,-0.0509425,VALID,16.8196,VALID,225,VALID,0,
2001-01-08, 03:01:00,VALID,915.592,VALID,0,VALID,99.0898,VALID,-0.0509425,VALID,16.794,VALID,226,VALID,0,
2001-01-08, 03:02:00,VALID,915.596,VALID,0,VALID,98.9461,VALID,-0.0509425,VALID,16.7264,VALID,225,VALID,0,
2001-01-08, 03:03:00,VALID,915.575,VALID,0,VALID,99.0783,VALID,-0.0169808,VALID,16.7066,VALID,215,VALID,0,
2001-01-08, 03:04:00,VALID,915.571,VALID,0,VALID,99.3021,VALID,-0.0339617,VALID,16.7876,VALID,214,VALID,0.709704,
2001-01-08, 03:05:00,VALID,915.559,VALID,0,VALID,99.3123,VALID,-0.0169808,VALID,16.8584,VALID,216,VALID,1.16365,
2001-01-08, 03:06:00,VALID,915.547,VALID,0,VALID,99.3047,VALID,0.0679233,VALID,16.8763,VALID,213,VALID,0.952097,
2001-01-08, 03:07:00,VALID,915.528,VALID,0,VALID,99.2411,VALID,0.0339617,VALID,16.8541,VALID,211,VALID,0.621505,
2001-01-08, 03:08:00,VALID,915.512,VALID,0,VALID,99.264,VALID,0.0339617,VALID,16.8474,VALID,187,VALID,0.594367,
2001-01-08, 03:09:00,VALID,915.476,VALID,0,VALID,99.2182,VALID,0.0509425,VALID,16.8121,VALID,189,VALID,0.910256,
2001-01-08, 03:10:00,VALID,915.452,VALID,0,VALID,99.2869,VALID,0.0679233,VALID,16.8153,VALID,188,VALID,0.874609,
2001-01-08, 03:11:00,VALID,915.442,VALID,0,VALID,99.2805,VALID,0.0339617,VALID,16.8123,VALID,196,VALID,0.497533,
2001-01-08, 03:12:00,VALID,915.439,VALID,0,VALID,99.1623,VALID,0.0679233,VALID,16.7379,VALID,189,VALID,0.116776,
2001-01-08, 03:13:00,VALID,915.436,VALID,0,VALID,98.955,VALID,0.0849042,VALID,16.5766,VALID,173,VALID,0,
2001-01-08, 03:14:00,VALID,915.433,VALID,0,VALID,99.0351,VALID,0.0509425,VALID,16.5054,VALID,171,VALID,0,
2001-01-08, 03:15:00,VALID,915.441,VALID,0,VALID,99.1813,VALID,0,VALID,16.4961,VALID,171,VALID,0,
2001-01-08, 03:16:00,VALID,915.442,VALID,0,VALID,99.2678,VALID,0.0339617,VALID,16.5121,VALID,171,VALID,0,
2001-01-08, 03:17:00,VALID,915.396,VALID,0,VALID,99.2627,VALID,0.0509425,VALID,16.5216,VALID,154,VALID,0.260617,
2001-01-08, 03:18:00,VALID,915.345,VALID,0,VALID,98.9982,VALID,0.101885,VALID,16.3595,VALID,134,VALID,0.681836,
2001-01-08, 03:19:00,VALID,915.318,VALID,0,VALID,99.1445,VALID,0.0679233,VALID,16.3214,VALID,148,VALID,0.60403,
2001-01-08, 03:20:00,VALID,915.302,VALID,0,VALID,99.4662,VALID,0.0339617,VALID,16.4576,VALID,178,VALID,0.615132,
2001-01-08, 03:21:00,VALID,915.293,VALID,0,VALID,99.5933,VALID,-0.0509425,VALID,16.591,VALID,191,VALID,0.449013,
2001-01-08, 03:22:00,VALID,915.285,VALID,0,VALID,99.6048,VALID,-0.0509425,VALID,16.6945,VALID,200,VALID,0,
2001-01-08, 03:23:00,VALID,915.252,VALID,0,VALID,99.5387,VALID,-0.0509425,VALID,16.7107,VALID,200,VALID,0,
2001-01-08, 03:24:00,VALID,915.241,VALID,0,VALID,99.4789,VALID,-0.0509425,VALID,16.6719,VALID,200,VALID,0,
2001-01-08, 03:25:00,VALID,915.244,VALID,0,VALID,99.4649,VALID,-0.0509425,VALID,16.6293,VALID,200,VALID,0,
2001-01-08, 03:26:00,VALID,915.244,VALID,0,VALID,99.4802,VALID,-0.0679233,VALID,16.636,VALID,200,VALID,0,
2001-01-08, 03:27:00,VALID,915.242,VALID,0,VALID,99.498,VALID,-0.0509425,VALID,16.6459,VALID,200,VALID,0,
2001-01-08, 03:28:00,VALID,915.235,VALID,0,VALID,99.5348,VALID,-0.101885,VALID,16.6883,VALID,200,VALID,0,
2001-01-08, 03:29:00,VALID,915.237,VALID,0,VALID,99.4496,VALID,-0.101885,VALID,16.6519,VALID,192,VALID,0,
2001-01-08, 03:30:00,VALID,915.222,VALID,0,VALID,99.381,VALID,-0.0679233,VALID,16.594,VALID,172,VALID,0,
2001-01-08, 03:31:00,VALID,915.231,VALID,0,VALID,99.4268,VALID,-0.0849042,VALID,16.5878,VALID,182,VALID,0.44778,
2001-01-08, 03:32:00,VALID,915.253,VALID,0,VALID,99.4471,VALID,-0.0679233,VALID,16.5781,VALID,199,VALID,0.46361,
2001-01-08, 03:33:00,VALID,915.253,VALID,0,VALID,99.4675,VALID,-0.0679233,VALID,16.5852,VALID,207,VALID,0.33133,
2001-01-08, 03:34:00,VALID,915.25,VALID,0,VALID,99.4547,VALID,-0.0679233,VALID,16.562,VALID,187,VALID,0.546094,
2001-01-08, 03:35:00,VALID,915.234,VALID,0,VALID,99.4509,VALID,-0.0509425,VALID,16.5557,VALID,177,VALID,0.629317,
2001-01-08, 03:36:00,VALID,915.218,VALID,0,VALID,99.3377,VALID,0.0509425,VALID,16.4382,VALID,161,VALID,0.885074,
2001-01-08, 03:37:00,VALID,915.182,VALID,0,VALID,99.5565,VALID,0.0679233,VALID,16.4966,VALID,168,VALID,1.17393,
2001-01-08, 03:38:00,VALID,915.144,VALID,0,VALID,99.5527,VALID,0.0169808,VALID,16.5674,VALID,184,VALID,0.769531,